Theta_e
320 320 321 322 323 323 324 325 325 326 326 324 326 328 327 325 324 324 325 323 324 328 330 327 324 326 330 332 333 332 333 333 333 333 332 332 330 327 323 322 324 327 329 327 328 330 332 332 332 332 333 333 333 334 335 334 333 333 333 331 332 333
315 315 316 316 318 320 321 322 322 322 322 323 327 329 327 326 324 323 324 324 324 326 328 328 326 328 330 331 331 332 332 332 333 333 332 332 332 330 327 323 322 324 327 326 326 328 330 331 331 331 332 333 333 333 334 334 334 333 333 332 331 332
314 314 314 314 314 315 317 319 320 320 318 319 324 328 328 327 325 324 324 324 324 324 327 328 327 329 330 330 329 331 332 332 332 332 332 333 332 332 330 326 323 323 324 324 324 326 329 330 330 331 332 333 333 333 333 334 335 333 333 332 331 332
315 315 315 315 314 314 315 317 317 317 317 316 320 326 329 329 328 326 324 324 323 322 325 327 328 328 329 329 328 329 331 332 331 331 332 334 333 332 332 329 326 323 323 323 323 324 327 328 329 331 331 333 333 333 333 334 335 333 332 333 332 332
316 316 317 317 316 315 316 316 315 316 316 314 318 324 326 328 329 328 326 326 325 323 323 326 326 326 327 327 328 329 330 330 330 330 331 332 333 332 332 332 329 325 324 323 322 324 325 326 328 330 330 331 333 333 334 334 334 333 333 332 333 332
317 317 317 317 317 316 315 315 315 316 316 316 319 322 323 326 329 328 328 329 328 327 326 325 324 325 326 327 327 327 328 329 329 330 330 331 332 331 330 332 332 329 326 324 323 324 324 325 329 331 331 331 333 334 333 334 334 333 333 333 333 332
318 318 317 317 316 316 315 315 315 314 315 318 320 321 321 323 328 327 327 329 329 329 329 328 326 327 328 328 326 326 327 329 330 331 331 331 332 331 331 331 332 331 330 327 325 324 323 325 331 333 333 332 332 332 332 333 335 334 333 333 333 332
318 318 318 317 316 316 315 315 315 315 316 316 318 322 322 323 326 326 326 328 329 329 329 328 328 329 330 330 328 327 327 329 331 332 332 332 332 331 332 331 331 332 332 331 327 326 325 326 331 333 333 332 331 331 331 331 333 334 333 333 333 331
318 318 317 317 317 316 316 315 315 316 318 318 317 322 326 326 326 325 325 327 328 329 329 328 328 328 329 329 329 328 328 329 329 330 331 332 332 330 330 331 331 332 332 332 330 329 328 327 330 331 332 332 331 332 332 331 333 334 332 333 333 332
317 317 316 316 315 314 314 313 313 314 318 321 320 323 327 327 326 327 327 327 327 328 329 329 329 328 328 328 329 329 329 328 328 329 330 331 332 330 328 328 329 330 330 330 330 330 329 329 329 330 330 330 330 331 332 333 332 333 333 333 333 332
316 316 316 315 314 312 311 310 310 311 316 323 324 325 326 326 326 327 327 327 327 327 328 329 329 329 328 328 329 329 330 329 328 329 330 331 331 329 327 327 328 329 329 329 329 329 329 330 330 330 331 330 329 330 331 332 332 332 333 334 333 333
316 315 315 315 313 311 309 309 309 309 315 322 325 326 326 326 326 326 326 327 327 327 327 328 329 329 329 329 329 330 330 331 330 329 330 331 330 330 329 329 330 330 330 330 330 330 330 331 330 331 332 331 330 330 330 331 333 332 333 334 333 333
315 316 315 314 312 310 309 308 309 308 311 320 324 325 325 326 326 326 326 327 327 327 326 327 328 328 328 329 330 330 331 331 331 330 330 330 330 330 331 331 331 331 331 330 329 331 331 331 331 331 332 331 331 331 331 332 333 332 333 334 334 333
316 316 315 313 311 309 309 307 308 308 310 317 323 324 324 325 325 326 326 326 326 326 326 327 327 328 328 328 329 330 330 331 331 330 329 329 329 330 330 331 331 330 330 328 328 330 330 331 331 330 330 331 332 332 332 333 333 332 332 334 334 334
316 315 313 312 310 309 309 308 307 308 310 317 322 322 323 323 323 324 325 325 325 326 325 326 326 327 328 328 329 330 330 330 331 330 330 329 329 329 330 330 330 330 329 327 328 328 329 330 330 330 329 330 332 333 333 333 333 332 332 333 334 334
316 314 312 311 310 309 308 308 308 309 313 318 321 321 322 322 322 323 324 324 324 324 325 324 325 326 327 327 328 329 329 330 330 330 331 330 329 330 330 330 330 330 328 326 327 328 328 329 330 331 331 330 332 333 333 333 332 332 332 333 333 333
315 313 312 310 310 310 309 308 309 311 315 319 320 320 321 321 321 322 322 323 323 323 323 323 323 324 325 326 326 327 328 329 329 330 330 331 330 330 330 330 330 330 329 327 327 328 328 328 329 331 332 331 332 334 335 334 332 332 333 333 334 334
315 313 312 311 311 310 310 309 309 311 313 317 318 319 319 319 320 321 321 321 321 321 321 322 322 322 323 324 325 325 326 327 328 329 330 330 330 331 330 330 330 330 328 327 328 328 327 328 330 332 333 332 333 334 335 334 332 332 333 333 333 333
314 313 312 311 311 311 310 310 310 311 311 313 315 317 318 318 318 319 319 319 320 320 320 320 321 321 321 322 323 324 324 325 325 327 328 330 330 331 331 330 330 329 328 327 328 328 328 328 329 331 333 332 333 334 335 334 332 332 332 332 332 332
314 313 312 312 312 311 311 311 311 311 312 311 312 313 315 316 316 317 317 318 318 318 318 318 319 320 321 322 322 323 323 323 324 325 326 328 330 330 330 330 329 329 329 328 327 327 329 329 329 329 331 332 332 333 334 334 334 333 332 332 332 332
314 313 313 312 312 312 312 312 312 312 312 312 312 312 312 312 314 316 316 316 316 316 317 318 318 319 320 321 321 322 322 322 322 323 324 325 327 329 330 330 330 329 329 328 328 329 329 329 329 329 330 331 331 332 333 333 334 334 334 333 332 333
316 313 313 313 313 313 313 312 312 312 313 313 313 313 311 310 311 314 315 315 315 315 316 317 317 319 320 321 321 321 321 321 321 321 322 322 324 327 329 329 329 329 328 328 329 329 330 330 330 330 330 330 330 331 331 332 333 334 334 334 333 333
319 315 314 314 313 313 313 313 313 313 313 313 313 313 312 310 310 312 314 314 314 314 315 315 316 318 319 320 320 320 320 320 320 320 320 320 321 324 327 328 329 330 329 329 329 330 330 331 331 330 330 330 330 330 330 331 332 332 333 333 334 333
322 318 315 315 314 314 314 313 313 313 313 313 313 313 313 312 311 312 313 314 315 316 315 315 315 317 318 319 319 319 320 319 319 319 319 319 319 320 323 326 328 329 330 330 329 330 331 330 330 330 330 331 331 331 330 331 330 330 330 332 333 334
322 320 318 316 316 315 314 314 313 313 314 313 314 313 313 312 311 312 313 314 316 318 317 316 316 316 316 318 319 319 319 319 319 320 319 318 317 317 319 322 325 327 329 329 329 330 331 330 330 330 330 331 331 331 331 330 329 329 330 330 331 333
322 321 320 318 317 316 315 315 314 314 314 313 314 314 313 312 311 312 313 314 316 318 317 317 316 316 316 318 319 319 319 319 320 320 320 320 318 317 318 320 321 324 327 329 329 329 330 330 330 330 331 331 331 331 331 331 330 330 330 329 329 331
323 323 322 319 318 318 317 316 315 314 314 314 314 314 313 312 312 312 313 314 316 318 318 318 317 317 317 318 319 319 319 319 320 320 320 321 319 318 320 321 321 323 325 327 328 328 329 330 330 330 330 331 331 331 331 332 331 330 330 330 329 330
324 323 323 320 319 320 319 317 316 315 315 314 314 314 313 313 312 311 312 315 317 318 318 319 318 317 317 318 319 319 319 319 319 319 320 321 321 320 322 323 323 324 325 325 326 327 327 328 329 329 330 330 331 331 331 331 331 331 331 330 330 331
324 323 323 321 320 320 320 319 317 316 316 314 314 314 313 313 312 312 312 314 316 317 318 319 318 317 317 318 318 317 318 319 318 319 319 320 321 322 323 322 323 324 325 325 325 325 326 327 328 329 330 330 330 330 331 331 332 331 331 331 330 330
325 324 323 322 321 321 321 321 318 317 317 315 314 314 314 313 313 312 311 313 315 316 317 318 318 318 318 318 318 316 317 318 317 317 318 319 320 321 322 322 322 323 324 325 325 325 326 327 327 328 329 329 329 330 330 331 331 331 332 331 330 329
325 324 323 322 321 320 321 321 320 318 318 316 314 315 315 313 313 313 312 312 314 315 317 317 318 319 318 319 319 318 317 318 318 317 317 317 318 319 320 321 321 322 323 324 325 326 326 327 327 327 328 328 328 329 329 330 330 331 331 331 331 329
325 325 324 323 323 321 321 322 321 319 318 317 314 315 315 314 313 313 312 312 313 315 316 317 318 318 319 319 319 318 318 319 318 318 317 317 317 317 319 320 321 321 322 323 325 325 325 326 326 327 327 327 328 328 329 329 330 330 331 331 331 330
324 324 324 324 324 323 322 322 322 319 319 318 315 315 315 314 313 313 311 311 313 314 315 316 317 318 318 319 319 318 318 318 318 318 317 317 318 317 317 318 319 320 321 322 323 324 324 325 325 326 326 327 327 327 328 328 329 329 330 330 331 331
325 324 324 324 324 323 323 323 322 320 319 318 316 315 315 314 314 313 312 311 312 313 315 316 317 318 318 318 318 318 317 317 317 317 317 317 317 317 316 317 317 318 319 320 322 323 324 324 324 324 325 325 325 326 326 327 328 329 329 330 331 331
325 325 324 324 323 323 323 323 323 321 320 319 317 316 315 315 314 313 313 312 311 313 315 316 317 318 318 318 317 317 317 317 317 317 317 316 316 316 316 317 316 316 317 319 320 321 322 323 324 323 324 323 323 324 325 327 327 327 328 328 330 331
325 325 324 324 324 323 323 323 323 321 320 319 318 316 316 315 314 314 313 313 312 312 314 316 317 318 318 317 317 317 317 317 316 316 316 316 316 316 316 316 316 316 316 317 318 320 321 322 324 324 324 323 322 322 324 326 327 327 328 328 329 330
325 324 322 322 323 323 324 324 323 322 320 320 319 317 316 315 315 315 314 313 312 311 313 314 315 317 318 317 317 316 315 316 316 315 315 315 316 316 316 316 315 315 316 316 317 319 320 322 323 324 325 325 324 323 323 324 326 327 328 328 329 329
Wind_Speed
2 1 1 2 2 3 4 6 7 6 5 5 6 5 3 3 4 5 4 3 2 2 2 1 2 4 4 2 1 1 1 1 1 0 1 2 3 2 3 5 7 8 8 7 7 7 7 7 7 7 7 6 7 10 10 8 6 3 4 3 2 4
4 4 3 2 1 1 3 5 7 9 7 5 4 3 3 3 4 6 5 5 3 1 0 1 1 2 3 2 2 2 1 1 1 1 1 1 1 1 1 4 6 8 8 8 7 8 7 7 7 6 7 6 7 10 8 6 6 5 4 4 3 4
5 5 5 5 4 3 3 4 6 9 9 6 4 3 4 4 5 6 6 6 5 3 2 2 2 2 3 3 3 3 3 2 2 2 2 2 2 1 1 2 5 7 9 9 9 9 8 7 7 6 6 5 6 9 9 7 8 6 5 4 3 5
3 4 5 6 5 5 4 5 7 8 8 7 6 5 5 4 4 5 6 6 5 4 3 4 3 3 4 4 4 3 3 4 3 2 2 2 3 3 2 2 4 6 9 9 9 10 10 9 8 7 6 5 6 9 11 10 9 7 5 5 4 5
3 3 5 6 5 5 5 6 7 9 10 9 8 7 6 6 5 5 5 6 6 5 5 5 4 4 5 5 5 5 4 4 4 3 3 2 3 3 3 3 4 5 6 8 9 10 11 10 9 8 7 6 6 9 11 11 10 8 6 5 5 6
5 5 6 6 6 5 4 6 8 9 10 10 9 9 8 7 6 6 5 6 7 7 7 7 6 5 6 6 6 6 6 5 5 4 4 3 3 3 3 4 5 5 4 6 9 10 11 10 9 8 8 9 7 7 9 9 9 8 7 5 5 6
6 6 7 7 8 7 6 7 8 8 9 10 10 10 10 8 7 7 7 6 7 7 7 7 8 7 7 7 7 7 7 7 7 6 4 3 3 3 4 6 6 5 5 6 9 10 10 11 10 9 10 10 9 7 7 8 10 9 8 6 5 5
5 6 6 7 8 9 8 9 9 8 8 9 9 10 10 9 8 8 8 7 7 7 7 7 8 8 8 8 8 8 7 8 8 7 6 4 3 3 5 7 6 5 6 7 8 8 9 11 11 11 10 10 11 9 7 8 11 10 8 7 5 6
5 6 7 8 9 9 10 10 10 10 8 6 7 8 9 8 8 8 8 7 7 7 7 7 7 7 8 9 8 7 7 8 9 8 7 5 5 4 5 7 7 6 7 7 8 8 10 11 12 13 12 11 11 9 7 9 12 10 9 8 6 6
4 6 7 8 9 9 9 10 11 11 8 5 5 6 7 6 7 9 8 7 8 7 7 7 7 7 8 8 8 7 7 7 8 9 7 5 5 5 5 7 8 8 7 7 7 9 10 11 12 13 12 11 11 9 7 10 13 11 9 9 8 8
4 5 6 8 9 9 10 9 11 9 6 5 5 5 6 6 6 9 10 9 9 8 7 7 7 7 7 7 6 5 6 6 8 9 8 6 5 5 6 7 8 8 7 7 8 10 11 11 12 11 8 8 9 10 9 10 12 12 10 11 9 8
4 5 7 9 11 11 11 10 10 8 6 7 6 5 4 5 6 7 8 9 9 8 7 7 7 7 6 6 5 4 5 5 6 8 8 7 5 5 6 6 7 6 6 7 8 9 10 9 10 8 6 7 8 9 10 10 11 11 10 11 9 8
5 7 10 12 14 14 13 12 10 8 6 7 7 6 4 4 6 6 6 7 8 8 7 7 7 7 6 5 5 4 5 5 6 7 7 7 6 6 6 6 6 5 5 6 7 7 7 6 6 5 5 7 8 9 9 10 12 10 9 11 9 8
6 9 12 14 16 16 16 13 11 9 6 6 6 5 4 4 6 7 9 8 8 8 8 7 6 6 6 5 4 4 4 5 5 6 7 8 8 7 7 6 6 6 6 6 6 6 6 6 5 5 7 6 7 8 8 10 12 10 8 10 10 8
7 10 13 15 16 17 17 15 12 10 5 4 4 3 2 4 6 8 10 10 9 8 9 9 8 7 6 5 4 4 4 4 4 6 6 7 8 8 6 5 5 6 6 6 6 5 6 7 6 7 8 7 6 9 9 10 12 10 8 11 10 8
8 10 12 14 16 16 17 16 13 9 3 2 2 1 2 5 7 9 10 11 11 10 9 9 9 9 8 6 4 3 4 3 3 5 5 5 7 7 6 6 6 6 7 7 5 4 5 6 7 8 9 7 7 10 10 11 13 10 9 12 12 9
7 10 11 13 14 16 17 17 14 9 2 3 4 3 4 6 7 9 10 11 12 11 10 9 9 9 9 9 7 4 3 3 2 3 4 4 5 5 5 5 5 6 7 7 6 5 5 6 7 8 9 8 8 10 11 11 13 11 11 14 13 11
6 8 10 11 14 16 17 17 15 10 5 4 6 6 6 8 9 10 10 12 13 13 11 11 10 8 7 7 7 5 4 3 1 1 2 2 2 3 3 3 4 5 6 7 7 5 5 6 7 8 9 10 10 12 11 12 15 14 12 12 12 12
5 7 8 10 13 15 17 18 16 13 9 6 6 8 10 11 12 12 12 12 14 15 14 12 10 8 6 4 5 5 5 4 3 3 2 1 1 1 2 3 2 3 5 6 6 6 7 7 8 9 10 10 11 12 12 12 15 17 14 11 11 12
3 5 7 9 12 14 16 18 17 15 14 14 12 9 10 13 15 15 15 14 14 15 15 12 10 8 5 4 4 4 4 4 4 4 4 2 1 0 2 3 3 3 5 6 7 8 9 9 9 9 10 10 11 13 13 13 15 17 16 13 11 11
3 3 6 8 11 14 15 17 17 17 17 17 19 18 14 12 14 16 17 16 14 14 13 10 8 7 6 4 4 3 3 3 4 4 5 4 2 1 1 2 3 5 5 6 7 8 10 10 10 10 10 10 11 12 14 15 16 16 16 15 13 12
3 3 4 7 10 12 14 15 16 16 17 18 21 23 21 17 13 14 14 15 15 14 13 10 8 7 6 4 3 3 2 3 4 4 4 5 4 2 2 2 3 4 4 5 6 7 9 10 11 11 10 11 11 12 13 15 16 16 17 17 16 14
4 4 4 6 8 11 11 13 14 15 16 18 21 23 23 21 15 11 10 10 9 8 8 8 7 7 6 4 3 2 2 4 5 5 4 5 6 5 4 4 3 3 3 4 5 6 8 10 11 11 10 10 10 11 13 15 16 16 16 18 18 17
5 5 5 5 7 9 10 11 13 14 15 17 20 23 23 23 18 12 9 7 6 7 7 4 1 5 6 5 3 2 3 4 5 5 5 4 5 6 7 6 5 4 3 4 5 6 7 8 11 11 10 9 10 10 11 13 15 16 16 17 18 18
7 7 7 4 6 9 9 10 12 13 15 16 18 22 24 24 21 14 10 8 7 8 9 7 4 1 3 4 3 3 2 4 5 5 5 4 3 5 8 8 8 6 4 4 4 5 6 7 9 11 11 10 9 8 8 10 11 13 16 18 18 19
9 9 9 6 5 8 9 9 11 13 14 15 17 20 23 25 22 15 10 8 6 7 8 7 6 5 4 2 2 2 2 4 6 7 7 6 4 2 6 8 9 8 6 5 5 5 5 7 8 11 12 12 11 8 7 8 8 9 12 15 17 19
11 11 12 9 6 8 10 10 10 13 14 15 16 18 21 23 23 17 10 6 6 6 7 6 5 5 4 1 2 4 6 7 6 6 6 7 4 0 3 5 6 7 8 7 6 5 5 6 8 9 11 13 15 13 10 8 8 8 8 10 14 17
12 13 13 11 9 9 11 11 10 11 13 14 15 17 18 20 23 20 10 4 5 5 5 5 4 4 3 2 3 6 8 8 6 6 5 6 5 1 1 3 4 5 7 7 7 7 6 6 7 8 9 11 14 16 16 14 13 11 10 9 11 12
14 14 14 12 11 11 12 13 12 11 12 13 14 15 16 17 21 22 12 3 3 5 4 4 3 2 2 3 4 5 6 6 5 5 5 6 4 2 0 1 2 3 5 6 7 8 8 8 7 7 9 10 12 15 17 18 18 17 16 16 15 13
15 14 14 13 12 12 13 14 14 11 11 13 13 14 15 15 18 22 16 5 4 5 5 5 4 2 1 1 4 4 4 5 5 5 5 5 5 3 3 2 2 2 3 4 6 7 7 8 8 8 9 10 12 13 15 16 18 19 19 19 19 18
15 14 14 14 13 13 13 14 15 12 11 12 13 12 13 14 16 20 19 9 4 6 6 5 5 3 2 1 3 4 4 5 6 5 5 6 6 5 5 4 3 2 3 4 5 6 6 7 8 9 10 11 11 12 13 15 16 16 17 18 19 19
15 14 14 14 14 14 13 14 15 13 12 12 11 11 11 13 15 19 18 11 6 6 6 5 5 4 2 2 3 3 3 4 5 5 5 6 6 5 5 4 4 3 4 4 5 6 7 7 8 9 9 10 11 11 13 14 14 14 15 16 17 19
16 15 14 14 15 15 14 14 16 15 13 11 10 10 10 12 15 18 18 13 9 8 7 6 6 6 4 3 4 3 3 4 4 4 5 5 5 5 5 4 4 4 4 5 6 6 7 7 8 8 9 10 11 12 12 13 14 14 15 15 16 18
17 15 15 15 15 16 15 15 16 15 14 12 10 9 10 12 15 17 18 16 11 8 8 9 8 6 5 4 3 3 4 5 4 4 4 4 5 5 5 6 6 6 5 6 6 7 8 9 9 9 10 11 12 12 12 12 13 15 15 15 16 17
17 15 15 16 16 16 16 16 16 16 15 12 11 10 10 12 14 16 17 18 16 10 8 11 10 6 3 3 3 4 4 5 5 6 5 5 5 5 6 7 8 7 7 7 8 8 8 9 10 11 11 12 13 13 13 12 13 15 15 16 16 17
18 17 16 16 16 16 16 16 17 17 15 13 12 11 11 12 14 16 16 18 19 13 8 9 9 5 2 1 3 5 6 8 9 10 9 7 5 6 6 7 9 9 8 8 8 9 9 10 10 11 11 13 14 14 14 14 14 15 16 16 16 16
19 18 17 17 16 16 16 17 17 17 16 14 13 12 11 13 14 16 16 18 19 14 8 7 7 5 4 3 4 7 10 12 13 13 13 11 10 8 7 8 9 10 9 9 9 9 10 10 10 11 11 12 14 14 14 16 16 16 16 17 17 17
Wind_Direction
18 29 19 31 24 1 337 323 322 316 316 322 339 1 1 353 355 344 338 344 6 49 43 49 186 193 198 209 225 225 201 167 139 111 11 36 59 89 158 178 195 207 211 214 209 200 198 195 193 190 189 196 210 226 212 199 220 204 191 213 200 208
20 11 6 13 18 359 325 318 314 306 305 315 339 350 324 299 304 312 320 325 312 285 66 287 249 207 208 219 237 252 237 194 170 206 291 328 35 73 160 183 195 208 216 218 216 213 214 213 207 200 196 198 219 243 233 205 229 235 216 226 226 213
13 354 346 347 347 346 329 312 306 305 303 307 319 313 299 288 287 292 301 318 306 280 241 233 267 257 238 242 249 249 243 226 199 210 245 264 263 260 257 213 207 213 219 219 217 217 220 224 224 216 206 203 218 243 249 233 231 233 219 217 227 213
13 346 333 332 330 328 323 309 305 308 304 301 301 289 291 295 287 276 272 289 298 287 264 250 256 262 256 257 267 260 239 233 227 215 226 245 253 258 268 264 241 227 224 222 219 218 221 223 227 228 219 214 230 241 241 233 227 222 217 221 226 211
15 352 340 332 326 319 309 302 300 302 301 301 295 279 280 290 289 272 259 266 273 273 268 265 265 269 269 263 273 280 257 238 235 226 217 231 251 260 264 267 258 240 233 231 226 223 223 224 226 230 224 215 241 259 246 233 226 217 215 230 231 213
4 353 347 338 333 329 311 293 287 288 290 292 291 279 268 268 277 279 272 266 263 265 265 268 273 276 275 265 268 280 279 267 251 240 226 227 247 258 258 245 242 243 245 236 229 227 228 230 231 234 234 225 235 272 268 245 229 217 212 230 230 211
355 347 343 339 335 334 325 303 291 283 277 276 281 279 272 262 261 269 279 284 277 276 272 271 274 274 274 264 262 267 276 282 275 266 261 259 250 247 253 246 239 238 242 237 234 236 236 235 241 248 247 247 249 260 269 247 234 226 210 214 219 207
352 344 340 337 334 332 328 320 309 296 280 270 269 270 273 272 262 256 267 284 289 288 280 272 269 269 272 269 265 263 265 278 284 283 284 287 272 244 250 253 250 241 239 243 246 247 249 244 251 265 262 264 262 252 252 236 234 235 211 205 217 213
345 340 340 336 335 335 333 331 322 312 300 272 259 261 267 275 276 268 266 280 289 290 283 275 273 272 274 276 275 273 267 270 275 277 278 282 282 271 264 264 263 255 248 248 250 253 259 255 260 274 274 270 261 252 249 232 230 233 215 212 225 228
340 339 342 342 343 345 343 337 326 320 314 284 253 248 256 272 290 287 282 288 290 290 290 283 282 279 277 281 284 284 278 273 271 271 273 271 275 275 271 273 272 269 262 255 253 253 259 264 270 278 275 263 255 245 244 241 235 229 219 218 227 238
347 347 349 350 354 360 355 341 327 320 304 271 249 246 261 277 288 287 285 287 284 284 291 288 287 286 283 284 288 288 277 271 267 270 278 277 274 272 268 276 280 278 275 272 270 265 264 271 273 275 269 253 251 245 245 253 240 227 222 222 228 242
349 350 357 358 2 7 1 351 336 319 281 251 245 247 267 294 294 286 280 278 276 279 287 287 288 289 289 292 294 293 278 266 262 266 279 285 281 277 274 277 282 284 282 282 283 279 275 273 268 265 252 238 246 250 249 249 234 221 219 221 228 241
351 358 3 4 6 6 3 2 349 327 286 247 239 244 258 301 298 280 270 270 272 277 283 282 283 285 287 292 293 291 283 275 268 267 276 282 279 277 279 284 283 273 270 278 286 294 284 270 266 256 237 233 244 252 246 233 224 216 210 213 226 238
356 4 7 9 8 4 1 4 356 336 303 252 247 257 264 295 291 272 265 269 274 274 280 284 283 285 285 285 287 284 284 286 282 276 278 280 279 279 282 289 289 275 270 276 285 301 291 272 268 250 239 237 244 251 238 222 217 214 205 206 220 234
1 7 11 12 10 6 0 3 0 344 322 263 264 268 264 288 289 278 269 273 281 278 279 283 282 282 284 285 293 289 286 299 303 294 290 286 284 285 285 284 285 277 273 278 283 293 286 271 261 244 241 237 235 239 230 218 217 216 208 203 211 223
6 11 14 15 11 9 5 5 5 356 343 243 262 262 273 288 289 286 278 277 284 285 279 279 277 275 277 279 291 303 299 309 323 312 303 293 287 290 292 285 280 273 266 268 269 267 269 263 251 242 242 237 229 232 228 220 216 218 212 198 203 216
11 14 16 17 12 12 12 12 12 10 351 248 258 260 272 281 282 282 280 279 283 287 283 278 274 273 274 274 276 287 300 309 334 330 321 307 296 295 298 289 275 267 262 260 254 246 253 255 252 249 243 235 227 226 225 218 212 216 213 199 202 213
10 18 17 16 15 16 18 17 16 15 356 284 270 271 281 286 283 281 282 284 286 290 289 283 278 274 273 270 267 268 278 288 286 310 338 343 324 302 298 291 271 262 258 256 250 239 235 239 245 245 237 229 229 230 222 215 213 216 215 207 210 211
5 17 15 13 16 17 19 22 20 14 8 352 310 284 286 293 295 293 289 286 286 288 291 288 281 276 268 255 250 254 265 278 278 267 283 354 27 289 269 268 263 250 240 239 242 243 238 234 236 239 235 228 233 240 231 219 219 219 220 220 221 216
345 7 12 8 13 16 18 23 24 16 12 14 7 338 307 298 299 300 297 293 288 286 288 287 281 269 254 240 232 238 254 271 275 269 269 279 290 266 261 262 251 233 227 227 233 236 236 233 234 238 237 234 235 241 237 230 227 222 221 225 227 224
310 347 9 4 7 15 19 22 24 18 10 11 11 5 351 325 304 299 298 296 295 291 288 285 274 254 235 228 230 232 253 273 273 270 265 269 282 293 277 261 249 242 233 230 231 228 229 229 231 235 235 238 241 239 237 235 232 228 224 224 227 227
288 318 357 2 3 14 20 22 23 17 10 8 6 4 2 353 328 307 301 298 299 298 292 285 268 245 225 219 235 247 282 304 297 287 269 262 265 268 267 243 237 248 243 236 236 232 233 232 232 235 235 240 243 239 237 231 228 231 229 227 229 229
268 296 332 356 360 10 19 19 19 15 11 9 5 2 3 3 352 327 316 316 320 320 310 295 265 241 223 215 247 278 320 334 321 310 291 265 254 249 250 246 234 241 239 235 241 241 240 239 237 238 239 243 245 241 238 230 226 229 230 230 230 229
257 274 303 344 354 3 13 12 13 12 9 9 4 2 3 6 3 349 344 4 36 43 27 13 266 242 225 211 251 307 353 356 341 328 319 296 263 244 238 239 236 234 232 231 238 240 241 238 236 237 238 239 239 240 240 237 233 230 229 231 232 231
259 266 284 318 344 352 0 1 4 7 7 6 3 2 4 5 5 2 4 24 53 55 47 54 59 27 193 195 267 305 1 6 360 355 350 345 306 249 237 236 234 235 237 241 245 242 238 235 233 234 234 231 228 230 236 241 243 235 229 231 233 233
267 269 279 296 326 342 347 348 354 1 2 2 2 3 5 6 7 5 8 22 39 47 49 57 56 67 131 155 319 329 13 9 8 10 8 5 354 258 235 231 230 235 236 239 249 247 239 238 238 236 235 233 230 230 233 239 243 242 236 234 233 233
271 271 279 289 303 323 336 340 345 353 356 357 359 2 6 9 10 6 4 21 33 40 47 52 59 77 113 107 33 54 34 16 13 15 14 12 12 108 207 218 218 229 237 239 246 252 251 247 245 244 240 235 233 236 239 238 237 241 243 236 231 231
270 272 277 286 295 303 318 329 338 345 347 350 355 2 5 7 10 8 2 15 29 29 36 41 61 87 84 24 38 58 40 22 21 23 20 22 29 81 181 216 208 215 232 241 249 256 262 257 249 248 247 241 237 239 240 240 240 240 242 239 232 230
267 273 276 282 293 296 302 315 329 339 340 343 351 360 2 1 6 7 3 340 355 6 19 25 41 96 85 10 6 31 38 25 21 21 15 24 38 50 28 263 239 217 220 234 247 255 261 261 257 249 245 245 244 244 243 243 244 243 244 248 246 241
267 274 277 281 290 294 297 306 318 330 333 338 348 355 356 355 360 5 3 336 299 338 356 4 13 35 58 4 351 353 15 18 9 5 1 8 28 27 7 347 312 269 240 237 242 249 253 257 259 253 246 244 244 246 245 244 245 244 245 249 252 251
266 275 280 281 286 292 296 301 309 319 325 331 345 351 347 349 356 3 3 350 313 330 343 351 3 6 341 322 345 346 2 16 12 8 5 3 12 13 357 345 325 294 277 259 248 248 249 251 253 252 249 247 248 248 245 244 246 247 247 248 252 257
263 273 282 283 286 291 294 298 304 312 317 324 341 347 339 342 352 359 1 354 334 331 337 345 1 8 351 338 4 14 24 31 22 14 17 13 7 3 352 339 321 293 275 266 260 255 254 253 253 252 250 250 250 248 246 246 246 246 248 250 255 261
260 272 282 284 286 290 292 295 300 307 311 316 331 340 335 338 347 355 359 351 330 327 339 345 356 9 18 23 32 49 53 38 21 4 6 9 360 350 339 325 315 303 279 266 261 258 258 257 256 254 251 250 251 251 251 251 251 249 248 250 256 262
262 274 282 285 287 288 291 292 297 303 305 309 317 326 332 338 344 352 357 353 336 328 346 353 351 355 10 31 37 38 34 19 2 346 336 330 330 330 328 316 305 300 287 273 265 264 265 262 260 259 256 255 257 258 255 252 252 253 251 250 253 259
259 268 274 280 284 287 289 290 294 299 300 301 306 313 326 334 339 346 351 353 345 333 346 358 355 355 13 38 27 15 8 350 333 329 317 299 301 312 317 315 306 297 291 282 270 269 272 269 266 264 263 263 263 262 261 257 254 254 254 253 252 255
257 262 266 269 276 282 286 287 290 295 296 295 298 305 317 323 330 339 343 349 348 338 335 349 348 348 349 351 343 330 327 325 319 320 317 303 296 299 300 303 301 295 290 283 270 265 270 271 269 267 265 266 265 263 261 261 259 254 252 252 252 252
262 266 266 263 268 274 278 283 288 291 292 291 292 298 309 314 322 333 338 344 345 338 330 335 328 313 298 302 320 311 309 314 314 316 316 309 300 293 285 283 288 289 288 284 271 260 261 264 266 267 267 268 269 265 260 258 257 255 252 250 249 249